sat.trackr.live / text

‹ back to catalog

COSMOS 2504

NORAD 40555 · 2015-020D

PAYLOAD ACTIVE UNKNOWN

§ Identity

Operator
Country
CIS
Launch date
2015-03-31
Launch site
PLMSC
Launch vehicle
Mass (kg)
RCS (m²)
0.24

External: N2YO · Heavens-Above · Gunter

§ Orbital elements

Epoch: 2026-09-20T03:26:22.651008Z

Period
105.77 min
Inclination
82.5195°
Eccentricity
0.0608673
Mean motion
13.61425818 rev/d
Perigee alt
579.6 km
Apogee alt
1,481.5 km
Semi-major
7,408.7 km
B*
1.1238e-4
RAAN
157.9269°
Arg perigee
16.2838°
Mean anomaly
345.6942°
Rev number
56,311

§ Raw data

COSMOS 25041 40555U 15020D   26263.14331772  .00000322  00000+0  11238-3 0  99982 40555  82.5195 157.9269 0608673  16.2838 345.6942 13.61425818563116

JSON: /api/v1/satellites/40555 · /tle

For live sub-satellite position, see the globe view (requires WebGL).

§ Visibility from observer

Set your observer location to see the next 7 days of passes ≥ 10°. The values pass through the URL so the page stays shareable.

No JS? Fill the form by hand. The geolocation button needs JavaScript.